Tracking 17780 objects as of 28-July-2016
HD Live streaming from Space Station
objects crossing your sky now

MOZ.5/SAFIR/RUBIN 5/SL-8

Track MOZ.5/SAFIR/RUBIN 5/SL-8 now!
10-day predictions
MOZ.5/SAFIR/RUBIN 5/SL-8 is classified as:


NORAD ID: 28898
Int'l Code: 2005-043G
Perigee: 685.4 km
Apogee: 715.2 km
Inclination: 97.9 °
Period: 98.6 minutes
Semi major axis: 7071 km
RCS: 6.834 m2 (large)
Launch date: October 27, 2005
Source: Germany (GER)
Launch site: PLESETSK MISSILE AND SPACE COMPLEX (PKMTR)
Uplink (MHz):
Downlink (MHz):
Beacon (MHz):
Mode:
Call sign:
Status:

Your satellite tracking list
Your tracking list is empty





NASA's NSSDC Master Catalog

Two Line Element Set (TLE):
1 28898U 05043G   16209.91843528 +.00000059 +00000-0 +21266-4 0  9990
2 28898 097.8843 008.6394 0021019 125.3153 235.0017 14.60113679195886
Source of the keplerian elements: AFSPC

N2YO: 1169